This is the latest recevied weather packets stored in our database for station/object W0CHP-13. If no packets are shown the sender has not sent any weather packets the latest 10 day(s).
| Time | Temp. | Humidity | Pressure | Rain* | Wind** | Luminosity | Snow |
|---|---|---|---|---|---|---|---|
| 1777944197 | 13.89° C | 35% | 1000.4 hPa | 0 mm | - | 1 W/m² | - |
| 1777943595 | 14.44° C | 34% | 1000.6 hPa | 0 mm | - | 2 W/m² | - |
| 1777942997 | 14.44° C | 34% | 1000.2 hPa | 0 mm | - | 3 W/m² | - |
| 1777942395 | 15° C | 33% | 1000.1 hPa | 0 mm | - | 6 W/m² | - |
| 1777941798 | 15° C | 32% | 1000.1 hPa | 0 mm | - | 9 W/m² | - |
| 1777941196 | 15.56° C | 32% | 999.7 hPa | 0 mm | - | 14 W/m² | - |
| 1777940598 | 15.56° C | 33% | 999.9 hPa | 0 mm | - | 22 W/m² | - |
| 1777939996 | 16.11° C | 31% | 999.6 hPa | 0 mm | - | 31 W/m² | - |
| 1777939398 | 16.67° C | 31% | 999.4 hPa | 0 mm | - | 44 W/m² | - |
| 1777938796 | 16.67° C | 31% | 999.2 hPa | 0 mm | - | 61 W/m² | - |
| 1777938198 | 17.22° C | 30% | 999.2 hPa | 0 mm | - | 73 W/m² | - |
| 1777937597 | 17.22° C | 28% | 999.1 hPa | 0 mm | - | 92 W/m² | - |
| 1777936995 | 17.78° C | 27% | 998.9 hPa | 0 mm | - | 87 W/m² | - |
| 1777936397 | 17.78° C | 28% | 998.5 hPa | 0 mm | - | 149 W/m² | - |
| 1777935795 | 17.78° C | 29% | 998.5 hPa | 0 mm | - | 131 W/m² | - |
| 1777935197 | 17.78° C | 29% | 998.7 hPa | 0 mm | - | 89 W/m² | - |
| 1777934596 | 18.33° C | 28% | 998.4 hPa | 0 mm | - | 107 W/m² | - |
| 1777933998 | 18.33° C | 27% | 998.2 hPa | 0 mm | - | 242 W/m² | - |
| 1777933396 | 18.89° C | 24% | 998.4 hPa | 0 mm | - | 293 W/m² | - |
| 1777932798 | 18.89° C | 23% | 998 hPa | 0 mm | - | 406 W/m² | - |
| 1777932196 | 18.89° C | 22% | 997.8 hPa | 0 mm | - | 285 W/m² | - |
| 1777931598 | 20° C | 22% | 997.8 hPa | 0 mm | - | 216 W/m² | - |
| 1777930997 | 20° C | 22% | 997.5 hPa | 0 mm | - | 261 W/m² | - |
| 1777930395 | 20° C | 22% | 997.5 hPa | 0 mm | - | 219 W/m² | - |
| 1777929797 | 20° C | 22% | 997.5 hPa | 0 mm | - | 173 W/m² | - |
* Rain latest hour (hover to see other rain measurements)
** Current wind speed in m/s (hover to see current wind gust speed)